"read_dt","SO2 (ppb)","flags","PMT voltage (V)","lamp voltage (V)","lamp intensity (Hz)","internal temp (C)","react chamber temp (C)","sample flow (l/min)","pres (mmHg)","SO2 bkg (ppb)","SO2 coefficient"
2014-03-17 00:00:00,6559E-2,5C000490,-0724,1376,4562,027.8,045.3,0.137,756.6,01.16,0.508
2014-03-17 00:01:00,6568E-2,5C000490,-0724,1376,4527,027.8,045.3,0.137,756.6,01.16,0.508
2014-03-17 00:02:00,6593E-2,5C000490,-0724,1376,4548,027.8,045.3,0.137,756.6,01.16,0.508
2014-03-17 00:03:00,6511E-2,5C000490,-0724,1376,4560,027.8,045.3,0.137,756.7,01.16,0.508
2014-03-17 00:04:00,6577E-2,5C000490,-0724,1376,4577,027.8,045.3,0.137,756.6,01.16,0.508
2014-03-17 00:05:00,6531E-2,5C000490,-0724,1376,4568,027.8,045.3,0.137,756.6,01.16,0.508
2014-03-17 00:06:00,6526E-2,5C000490,-0724,1376,4507,027.8,045.3,0.137,756.6,01.16,0.508
2014-03-17 00:07:00,6632E-2,5C000490,-0724,1376,4581,027.9,045.3,0.137,756.8,01.16,0.508
2014-03-17 00:08:00,6506E-2,5C000490,-0724,1376,4509,027.8,045.3,0.137,756.7,01.16,0.508
2014-03-17 00:09:00,6581E-2,5C000490,-0724,1376,4562,027.9,045.3,0.137,756.7,01.16,0.508
2014-03-17 00:10:00,6562E-2,5C000490,-0724,1376,4521,027.9,045.3,0.137,756.7,01.16,0.508
2014-03-17 00:11:00,6579E-2,5C000490,-0724,1376,4508,027.9,045.3,0.137,756.8,01.16,0.508
2014-03-17 00:12:00,6512E-2,5C000490,-0724,1376,4535,027.9,045.3,0.136,756.7,01.16,0.508
2014-03-17 00:13:00,6499E-2,5C000490,-0724,1376,4537,027.9,045.3,0.136,756.7,01.16,0.508
2014-03-17 00:14:00,6567E-2,5C000490,-0724,1376,4581,027.9,045.3,0.137,756.7,01.16,0.508
2014-03-17 00:15:00,6569E-2,5C000490,-0724,1376,4594,027.9,045.3,0.137,756.7,01.16,0.508
2014-03-17 00:16:00,6525E-2,5C000490,-0724,1376,4580,027.9,045.3,0.136,756.8,01.16,0.508
2014-03-17 00:17:00,6538E-2,5C000490,-0724,1376,4505,027.9,045.3,0.137,756.7,01.16,0.508
2014-03-17 00:18:00,6581E-2,5C000490,-0724,1376,4527,027.9,045.3,0.136,756.7,01.16,0.508
2014-03-17 00:19:00,6505E-2,5C000490,-0724,1376,4539,027.9,045.3,0.136,756.8,01.16,0.508
2014-03-17 00:20:00,6529E-2,5C000490,-0724,1376,4574,027.9,045.3,0.136,756.8,01.16,0.508
2014-03-17 00:21:00,6532E-2,5C000490,-0724,1376,4507,027.9,045.3,0.136,756.8,01.16,0.508
2014-03-17 00:22:00,6539E-2,5C000490,-0724,1376,4540,027.9,045.3,0.136,756.7,01.16,0.508
2014-03-17 00:23:00,6573E-2,5C000490,-0724,1376,4505,027.9,045.3,0.136,756.7,01.16,0.508
2014-03-17 00:24:00,6493E-2,5C000490,-0724,1376,4513,027.9,045.3,0.136,756.8,01.16,0.508
2014-03-17 00:25:00,6578E-2,5C000490,-0724,1376,4538,027.9,045.3,0.136,756.7,01.16,0.508
2014-03-17 00:26:00,6612E-2,5C000490,-0724,1376,4526,027.9,045.3,0.136,756.8,01.16,0.508
2014-03-17 00:27:00,6560E-2,5C000490,-0724,1376,4577,027.9,045.3,0.136,756.8,01.16,0.508
2014-03-17 00:28:00,6541E-2,5C000490,-0724,1376,4529,027.9,045.3,0.136,756.8,01.16,0.508
2014-03-17 00:29:00,6484E-2,5C000490,-0724,1376,4529,027.9,045.3,0.136,756.8,01.16,0.508
2014-03-17 00:30:00,6509E-2,5C000490,-0724,1376,4519,028.0,045.3,0.136,756.9,01.16,0.508
2014-03-17 00:31:00,6534E-2,5C000490,-0724,1376,4522,028.0,045.3,0.136,756.8,01.16,0.508
2014-03-17 00:32:00,6553E-2,5C000490,-0724,1376,4554,028.0,045.3,0.136,756.8,01.16,0.508
2014-03-17 00:33:00,6549E-2,5C000490,-0724,1376,4530,028.0,045.3,0.136,756.8,01.16,0.508
2014-03-17 00:34:00,6524E-2,5C000490,-0724,1376,4543,028.0,045.3,0.136,756.8,01.16,0.508
2014-03-17 00:35:00,6499E-2,5C000490,-0724,1376,4579,028.0,045.3,0.136,756.8,01.16,0.508
2014-03-17 00:36:00,6507E-2,5C000490,-0724,1376,4501,028.0,045.3,0.136,756.8,01.16,0.508
2014-03-17 00:37:00,6536E-2,5C000490,-0724,1376,4539,028.0,045.3,0.136,756.7,01.16,0.508
2014-03-17 00:38:00,6512E-2,5C000490,-0724,1376,4481,028.0,045.3,0.136,756.7,01.16,0.508
2014-03-17 00:39:00,6567E-2,5C000490,-0724,1376,4562,028.0,045.3,0.136,756.8,01.16,0.508
2014-03-17 00:40:00,6443E-2,5C000490,-0724,1376,4497,028.0,045.3,0.136,756.9,01.16,0.508
2014-03-17 00:41:00,6482E-2,5C000490,-0724,1376,4513,028.0,045.3,0.136,756.9,01.16,0.508
2014-03-17 00:42:00,6538E-2,5C000490,-0724,1376,4553,028.0,045.3,0.136,756.9,01.16,0.508
2014-03-17 00:43:00,6593E-2,5C000490,-0724,1376,4515,028.1,045.3,0.136,756.9,01.16,0.508
2014-03-17 00:44:00,6491E-2,5C000490,-0724,1376,4468,028.0,045.3,0.136,756.9,01.16,0.508
2014-03-17 00:45:00,6510E-2,5C000490,-0724,1376,4538,028.1,045.3,0.136,756.9,01.16,0.508
2014-03-17 00:46:00,6462E-2,5C000490,-0724,1376,4517,028.1,045.3,0.136,757.0,01.16,0.508
2014-03-17 00:47:00,6534E-2,5C000490,-0724,1376,4491,028.1,045.3,0.136,756.9,01.16,0.508
2014-03-17 00:48:00,6510E-2,5C000490,-0724,1376,4496,028.1,045.3,0.136,756.9,01.16,0.508
2014-03-17 00:49:00,6445E-2,5C000490,-0724,1376,4494,028.1,045.3,0.136,756.9,01.16,0.508
2014-03-17 00:50:00,6466E-2,5C000490,-0724,1376,4515,028.1,045.3,0.136,756.9,01.16,0.508
2014-03-17 00:51:00,6460E-2,5C000490,-0724,1376,4446,028.1,045.3,0.136,757.0,01.16,0.508
2014-03-17 00:52:00,6501E-2,5C000490,-0724,1376,4531,028.1,045.3,0.136,756.9,01.16,0.508
2014-03-17 00:53:00,6513E-2,5C000490,-0724,1376,4539,028.1,045.3,0.136,756.9,01.16,0.508
2014-03-17 00:54:00,6494E-2,5C000490,-0724,1376,4354,028.1,045.3,0.136,757.0,01.16,0.508
2014-03-17 00:55:00,6410E-2,5C000490,-0724,1376,4475,028.1,045.3,0.136,756.9,01.16,0.508
2014-03-17 00:56:00,6495E-2,5C000490,-0724,1376,4465,028.1,045.3,0.136,757.0,01.16,0.508
2014-03-17 00:57:00,6458E-2,5C000490,-0724,1376,4399,028.1,045.3,0.136,757.0,01.16,0.508
2014-03-17 00:58:00,6371E-2,5C000490,-0724,1376,4461,028.1,045.3,0.136,757.0,01.16,0.508
2014-03-17 00:59:00,6473E-2,5C000490,-0724,1376,4396,028.1,045.3,0.136,757.0,01.16,0.508
2014-03-17 01:00:00,6406E-2,5C000490,-0724,1376,4507,028.1,045.3,0.136,757.0,01.16,0.508
2014-03-17 01:01:00,6435E-2,5C000490,-0724,1376,4419,028.1,045.3,0.136,757.0,01.16,0.508
2014-03-17 01:02:00,6457E-2,5C000490,-0724,1376,4444,028.2,045.3,0.135,756.9,01.16,0.508
2014-03-17 01:03:00,6449E-2,5C000490,-0724,1376,4537,028.1,045.3,0.135,757.0,01.16,0.508
2014-03-17 01:04:00,6478E-2,5C000490,-0724,1376,4544,028.2,045.3,0.136,757.0,01.16,0.508
2014-03-17 01:05:00,6375E-2,5C000490,-0724,1376,4497,028.2,045.3,0.135,757.1,01.16,0.508
2014-03-17 01:06:00,6375E-2,5C000490,-0724,1376,4524,028.2,045.3,0.135,757.1,01.16,0.508
2014-03-17 01:07:00,6395E-2,5C000490,-0724,1376,4366,028.2,045.3,0.135,757.1,01.16,0.508
2014-03-17 01:08:00,6400E-2,5C000490,-0724,1376,4501,028.2,045.3,0.135,757.0,01.16,0.508
2014-03-17 01:09:00,6366E-2,5C000490,-0724,1376,4531,028.2,045.3,0.135,757.1,01.16,0.508
2014-03-17 01:10:00,6320E-2,5C000490,-0724,1376,4416,028.2,045.3,0.135,757.1,01.16,0.508
2014-03-17 01:11:00,6366E-2,5C000490,-0724,1376,4502,028.2,045.3,0.135,757.1,01.16,0.508
2014-03-17 01:12:00,6428E-2,5C000490,-0724,1376,4496,028.2,045.3,0.135,757.1,01.16,0.508
2014-03-17 01:13:00,6436E-2,5C000490,-0724,1376,4432,028.2,045.3,0.135,757.1,01.16,0.508
2014-03-17 01:14:00,6411E-2,5C000490,-0724,1376,4456,028.2,045.3,0.135,757.1,01.16,0.508
2014-03-17 01:15:00,6381E-2,5C000490,-0724,1376,4374,028.2,045.3,0.135,757.0,01.16,0.508
2014-03-17 01:16:00,6416E-2,5C000490,-0724,1376,4429,028.2,045.3,0.135,757.0,01.16,0.508
2014-03-17 01:17:00,6430E-2,5C000490,-0724,1376,4417,028.2,045.3,0.135,757.0,01.16,0.508
2014-03-17 01:18:00,6355E-2,5C000490,-0724,1376,4462,028.2,045.3,0.135,757.0,01.16,0.508
2014-03-17 01:19:00,6381E-2,5C000490,-0724,1376,4441,028.2,045.3,0.135,756.9,01.16,0.508
2014-03-17 01:20:00,6354E-2,5C000490,-0724,1376,4435,028.2,045.3,0.135,757.0,01.16,0.508
2014-03-17 01:21:00,6406E-2,5C000490,-0724,1376,4480,028.2,045.3,0.135,757.0,01.16,0.508
2014-03-17 01:22:00,6371E-2,5C000490,-0724,1376,4365,028.2,045.3,0.135,757.1,01.16,0.508
2014-03-17 01:23:00,6354E-2,5C000490,-0724,1376,4438,028.2,045.3,0.135,757.0,01.16,0.508
2014-03-17 01:24:00,6385E-2,5C000490,-0724,1376,4423,028.2,045.3,0.135,757.0,01.16,0.508
2014-03-17 01:25:00,6436E-2,5C000490,-0724,1376,4403,028.2,045.3,0.135,757.1,01.16,0.508
2014-03-17 01:26:00,6386E-2,5C000490,-0724,1376,4385,028.2,045.3,0.135,757.0,01.16,0.508
2014-03-17 01:27:00,6394E-2,5C000490,-0724,1376,4427,028.2,045.3,0.135,757.0,01.16,0.508
2014-03-17 01:28:00,6338E-2,5C000490,-0724,1376,4364,028.2,045.3,0.135,757.0,01.16,0.508
2014-03-17 01:29:00,6398E-2,5C000490,-0724,1376,4384,028.2,045.3,0.135,757.0,01.16,0.508
2014-03-17 01:30:00,6421E-2,5C000490,-0724,1376,4319,028.2,045.3,0.135,757.0,01.16,0.508
2014-03-17 01:31:00,6365E-2,5C000490,-0724,1376,4403,028.2,045.3,0.135,757.1,01.16,0.508
2014-03-17 01:32:00,6406E-2,5C000490,-0724,1376,4331,028.3,045.3,0.135,757.0,01.16,0.508
2014-03-17 01:33:00,6400E-2,5C000490,-0724,1376,4287,028.3,045.3,0.135,756.9,01.16,0.508
2014-03-17 01:34:00,6410E-2,5C000490,-0724,1376,4354,028.3,045.3,0.135,757.0,01.16,0.508
2014-03-17 01:35:00,6423E-2,5C000490,-0724,1376,4335,028.3,045.3,0.135,757.0,01.16,0.508
2014-03-17 01:36:00,6395E-2,5C000490,-0724,1376,4347,028.3,045.3,0.135,757.0,01.16,0.508
2014-03-17 01:37:00,6362E-2,5C000490,-0724,1376,9205,028.2,045.3,0.135,756.9,01.16,0.508
2014-03-17 01:38:00,6453E-2,5C000490,-0724,1217,8705,028.2,045.3,0.135,756.9,01.16,0.508
2014-03-17 01:39:00,6196E-2,5C000490,-0724,1202,8524,028.3,045.3,0.135,756.9,01.16,0.508
2014-03-17 01:40:00,6189E-2,5C000490,-0724,1203,8562,028.3,045.3,0.135,756.9,01.16,0.508
2014-03-17 01:41:00,6213E-2,5C000490,-0724,1207,8480,028.3,045.3,0.135,756.9,01.16,0.508
2014-03-17 01:42:00,6294E-2,5C000490,-0724,1209,8430,028.3,045.3,0.135,756.8,01.16,0.508
2014-03-17 01:43:00,6288E-2,5C000490,-0724,1213,8489,028.3,045.3,0.135,756.9,01.16,0.508
2014-03-17 01:44:00,6244E-2,5C000490,-0724,1216,8277,028.2,045.3,0.135,756.8,01.16,0.508
2014-03-17 01:45:00,6325E-2,5C000490,-0724,1219,8290,028.3,045.3,0.135,756.8,01.16,0.508
2014-03-17 01:46:00,6242E-2,5C000490,-0724,1222,8315,028.2,045.3,0.135,756.8,01.16,0.508
2014-03-17 01:47:00,6326E-2,5C000490,-0724,1226,7968,028.3,045.3,0.135,756.8,01.16,0.508
2014-03-17 01:48:00,6115E-2,5C000490,-0724,1250,8087,028.2,045.3,0.135,756.8,01.16,0.508
2014-03-17 01:49:00,5565E-2,5C000490,-0724,1239,8423,028.2,045.3,0.135,756.8,01.16,0.508
2014-03-17 01:50:00,4292E-2,5C000490,-0724,1226,8238,028.2,045.3,0.135,756.9,01.16,0.508
2014-03-17 01:51:00,4257E-2,5C000490,-0724,1227,8265,028.2,045.3,0.135,756.8,01.16,0.508
2014-03-17 01:52:00,4283E-2,5C000490,-0724,1227,8278,028.2,045.3,0.135,756.8,01.16,0.508
2014-03-17 01:53:00,4277E-2,5C000490,-0724,1231,8209,028.2,045.3,0.135,756.7,01.16,0.508
2014-03-17 01:54:00,4289E-2,5C000490,-0724,1231,8165,028.2,045.3,0.135,756.7,01.16,0.508
2014-03-17 01:55:00,4236E-2,5C000490,-0724,1234,8202,028.2,045.3,0.135,756.7,01.16,0.508
2014-03-17 01:56:00,4229E-2,5C000490,-0724,1236,8077,028.2,045.3,0.135,756.8,01.16,0.508
2014-03-17 01:57:00,4241E-2,5C000490,-0724,1237,8252,028.2,045.3,0.135,756.8,01.16,0.508
2014-03-17 01:58:00,4256E-2,5C000490,-0724,1241,8153,028.2,045.3,0.135,756.7,01.16,0.508
2014-03-17 01:59:00,4241E-2,5C000490,-0724,1243,8050,028.2,045.3,0.135,756.8,01.16,0.508
2014-03-17 02:00:00,4259E-2,5C000490,-0724,1244,8081,028.2,045.3,0.135,756.8,01.16,0.508
2014-03-17 02:01:00,4181E-2,5C000490,-0724,1244,8048,028.2,045.3,0.135,756.7,01.16,0.508
2014-03-17 02:02:00,4279E-2,5C000490,-0724,1247,8010,028.2,045.3,0.135,756.7,01.16,0.508
2014-03-17 02:03:00,4251E-2,5C000490,-0724,1248,8128,028.2,045.3,0.135,756.8,01.16,0.508
2014-03-17 02:04:00,4273E-2,5C000490,-0724,1250,8121,028.2,045.3,0.135,756.8,01.16,0.508
2014-03-17 02:05:00,4261E-2,5C000490,-0724,1251,7991,028.2,045.3,0.135,756.7,01.16,0.508
2014-03-17 02:06:00,4223E-2,5C000490,-0724,1253,8081,028.2,045.3,0.135,756.7,01.16,0.508
2014-03-17 02:07:00,4252E-2,5C000490,-0724,1254,8044,028.2,045.3,0.135,756.8,01.16,0.508
2014-03-17 02:08:00,4264E-2,5C000490,-0724,1256,7960,028.2,045.3,0.135,756.8,01.16,0.508
2014-03-17 02:09:00,4306E-2,5C000490,-0724,1258,7864,028.2,045.3,0.135,756.8,01.16,0.508
2014-03-17 02:10:00,4261E-2,5C000490,-0724,1259,7907,028.2,045.3,0.135,756.8,01.16,0.508
2014-03-17 02:11:00,4248E-2,5C000490,-0724,1260,8064,028.2,045.3,0.135,756.8,01.16,0.508
2014-03-17 02:12:00,4289E-2,5C000490,-0724,1260,7961,028.2,045.3,0.135,756.8,01.16,0.508
2014-03-17 02:13:00,4264E-2,5C000490,-0724,1263,7922,028.2,045.3,0.135,756.7,01.16,0.508
2014-03-17 02:14:00,4266E-2,5C000490,-0724,1264,7967,028.2,045.3,0.135,756.8,01.16,0.508
2014-03-17 02:15:00,4258E-2,5C000490,-0724,1264,7945,028.2,045.3,0.135,756.7,01.16,0.508
2014-03-17 02:16:00,4303E-2,5C000490,-0724,1266,7861,028.2,045.3,0.135,756.7,01.16,0.508
2014-03-17 02:17:00,4251E-2,5C000490,-0724,1266,7849,028.2,045.3,0.135,756.8,01.16,0.508
2014-03-17 02:18:00,4259E-2,5C000490,-0724,1268,7896,028.2,045.3,0.135,756.8,01.16,0.508
2014-03-17 02:19:00,4238E-2,5C000490,-0724,1270,7921,028.2,045.3,0.135,756.7,01.16,0.508
2014-03-17 02:20:00,4219E-2,5C000490,-0724,1271,7793,028.2,045.3,0.135,756.8,01.16,0.508
2014-03-17 02:21:00,4268E-2,5C000490,-0724,1274,7774,028.2,045.3,0.135,756.8,01.16,0.508
2014-03-17 02:22:00,4259E-2,5C000490,-0724,1274,7795,028.2,045.3,0.135,756.8,01.16,0.508
2014-03-17 02:23:00,4239E-2,5C000490,-0724,1276,7742,028.2,045.3,0.135,756.8,01.16,0.508
2014-03-17 02:24:00,4237E-2,5C000490,-0724,1278,7631,028.2,045.3,0.135,756.8,01.16,0.508
2014-03-17 02:25:00,4310E-2,5C000490,-0724,1277,7788,028.2,045.3,0.135,756.9,01.16,0.508
2014-03-17 02:26:00,4343E-2,5C000490,-0724,1278,7778,028.2,045.3,0.135,756.9,01.16,0.508
2014-03-17 02:27:00,4357E-2,5C000490,-0724,1280,7685,028.2,045.3,0.135,756.9,01.16,0.508
2014-03-17 02:28:00,4315E-2,5C000490,-0724,1282,7772,028.2,045.3,0.135,756.9,01.16,0.508
2014-03-17 02:29:00,4428E-2,5C000490,-0724,1283,7785,028.3,045.3,0.135,757.0,01.16,0.508
2014-03-17 02:30:00,4396E-2,5C000490,-0724,1286,7762,028.3,045.3,0.135,757.0,01.16,0.508
2014-03-17 02:31:00,4384E-2,5C000490,-0724,1287,7694,028.3,045.3,0.135,757.0,01.16,0.508
2014-03-17 02:32:00,4355E-2,5C000490,-0724,1289,7752,028.3,045.3,0.135,757.0,01.16,0.508
2014-03-17 02:33:00,4343E-2,5C000490,-0724,1290,7645,028.3,045.3,0.135,757.1,01.16,0.508
2014-03-17 02:34:00,4470E-2,5C000490,-0724,1290,7657,028.3,045.3,0.135,757.0,01.16,0.508
2014-03-17 02:35:00,4440E-2,5C000490,-0724,1290,7699,028.3,045.3,0.135,757.0,01.16,0.508
2014-03-17 02:36:00,4436E-2,5C000490,-0724,1290,7585,028.3,045.3,0.135,757.1,01.16,0.508
2014-03-17 02:37:00,4428E-2,5C000490,-0724,1292,7611,028.3,045.3,0.135,757.0,01.16,0.508
2014-03-17 02:38:00,4421E-2,5C000490,-0724,1292,7630,028.3,045.3,0.135,757.1,01.16,0.508
2014-03-17 02:39:00,4405E-2,5C000490,-0724,1293,7521,028.3,045.3,0.135,757.1,01.16,0.508
2014-03-17 02:40:00,4395E-2,5C000490,-0724,1294,7502,028.3,045.3,0.135,757.1,01.16,0.508
2014-03-17 02:41:00,4399E-2,5C000490,-0724,1296,7671,028.3,045.3,0.135,757.1,01.16,0.508
2014-03-17 02:42:00,4434E-2,5C000490,-0724,1297,7642,028.3,045.3,0.135,757.0,01.16,0.508
2014-03-17 02:43:00,4452E-2,5C000490,-0724,1297,7606,028.3,045.3,0.135,757.0,01.16,0.508
2014-03-17 02:44:00,4389E-2,5C000490,-0724,1299,7601,028.3,045.3,0.135,757.0,01.16,0.508
2014-03-17 02:45:00,4478E-2,5C000490,-0724,1298,7660,028.3,045.3,0.135,757.1,01.16,0.508
2014-03-17 02:46:00,4402E-2,5C000490,-0724,1300,7529,028.3,045.3,0.135,757.0,01.16,0.508
2014-03-17 02:47:00,4310E-2,5C000490,-0724,1313,7393,028.3,045.3,0.135,757.0,01.16,0.508
2014-03-17 02:48:00,4252E-2,5C000490,-0724,1316,7312,028.3,045.3,0.135,757.0,01.16,0.508
2014-03-17 02:49:00,4274E-2,5C000490,-0724,1319,7451,028.3,045.3,0.135,757.0,01.16,0.508
2014-03-17 02:50:00,4274E-2,5C000490,-0724,1320,7317,028.3,045.3,0.135,757.0,01.16,0.508
2014-03-17 02:51:00,4308E-2,5C000490,-0724,1320,7390,028.3,045.3,0.135,757.1,01.16,0.508
2014-03-17 02:52:00,4251E-2,5C000490,-0724,1322,7348,028.3,045.3,0.135,757.1,01.16,0.508
2014-03-17 02:53:00,4286E-2,5C000490,-0724,1324,7305,028.3,045.3,0.135,757.0,01.16,0.508
2014-03-17 02:54:00,4310E-2,5C000490,-0724,1326,7409,028.3,045.3,0.135,757.0,01.16,0.508
2014-03-17 02:55:00,4264E-2,5C000490,-0724,1326,7365,028.3,045.3,0.135,757.0,01.16,0.508
2014-03-17 02:56:00,4308E-2,5C000490,-0724,1327,7311,028.3,045.3,0.135,757.1,01.16,0.508
2014-03-17 02:57:00,4288E-2,5C000490,-0724,1327,7198,028.3,045.3,0.135,757.1,01.16,0.508
2014-03-17 02:58:00,4319E-2,5C000490,-0724,1328,7286,028.3,045.3,0.135,757.1,01.16,0.508
2014-03-17 02:59:00,4255E-2,5C000490,-0724,1328,7321,028.3,045.3,0.135,757.0,01.16,0.508
2014-03-17 03:00:00,4309E-2,5C000490,-0724,1328,7314,028.3,045.3,0.135,757.0,01.16,0.508
2014-03-17 03:01:00,4283E-2,5C000490,-0724,1330,7284,028.3,045.3,0.135,757.0,01.16,0.508
2014-03-17 03:02:00,4354E-2,5C000490,-0724,1331,7297,028.3,045.3,0.135,757.1,01.16,0.508
2014-03-17 03:03:00,4272E-2,5C000490,-0724,1333,7263,028.3,045.3,0.135,757.1,01.16,0.508
2014-03-17 03:04:00,4324E-2,5C000490,-0724,1333,7228,028.3,045.3,0.135,757.1,01.16,0.508
2014-03-17 03:05:00,4252E-2,5C000490,-0724,1333,7284,028.3,045.3,0.135,757.1,01.16,0.508
2014-03-17 03:06:00,4347E-2,5C000490,-0724,1331,7262,028.3,045.3,0.135,757.1,01.16,0.508
2014-03-17 03:07:00,4291E-2,5C000490,-0724,1331,7189,028.3,045.3,0.135,757.1,01.16,0.508
2014-03-17 03:08:00,4363E-2,5C000490,-0724,1331,7315,028.3,045.3,0.135,757.2,01.16,0.508
2014-03-17 03:09:00,4313E-2,5C000490,-0724,1333,7234,028.3,045.3,0.135,757.1,01.16,0.508
2014-03-17 03:10:00,4292E-2,5C000490,-0724,1334,7238,028.3,045.3,0.135,757.1,01.16,0.508
2014-03-17 03:11:00,4313E-2,5C000490,-0724,1336,7158,028.3,045.3,0.135,757.2,01.16,0.508
2014-03-17 03:12:00,4319E-2,5C000490,-0724,1337,7229,028.3,045.3,0.135,757.2,01.16,0.508
2014-03-17 03:13:00,4309E-2,5C000490,-0724,1338,7250,028.3,045.3,0.135,757.2,01.16,0.508
2014-03-17 03:14:00,4304E-2,5C000490,-0724,1338,7077,028.3,045.3,0.135,757.1,01.16,0.508
2014-03-17 03:15:00,4281E-2,5C000490,-0724,1339,7170,028.3,045.3,0.135,757.2,01.16,0.508
2014-03-17 03:16:00,4349E-2,5C000490,-0724,1340,7088,028.3,045.3,0.135,757.2,01.16,0.508
2014-03-17 03:17:00,4298E-2,5C000490,-0724,1341,7070,028.3,045.3,0.135,757.2,01.16,0.508
2014-03-17 03:18:00,4301E-2,5C000490,-0724,1342,7172,028.3,045.3,0.135,757.2,01.16,0.508
2014-03-17 03:19:00,4301E-2,5C000490,-0724,1343,7100,028.3,045.3,0.135,757.2,01.16,0.508
2014-03-17 03:20:00,4312E-2,5C000490,-0724,1343,7119,028.3,045.3,0.135,757.2,01.16,0.508
2014-03-17 03:21:00,4285E-2,5C000490,-0724,1343,7181,028.3,045.3,0.135,757.1,01.16,0.508
2014-03-17 03:22:00,4345E-2,5C000490,-0724,1344,7187,028.3,045.3,0.135,757.2,01.16,0.508
2014-03-17 03:23:00,4312E-2,5C000490,-0724,1346,7088,028.4,045.3,0.135,757.2,01.16,0.508
2014-03-17 03:24:00,4304E-2,5C000490,-0724,1346,7071,028.3,045.3,0.135,757.2,01.16,0.508
2014-03-17 03:25:00,4348E-2,5C000490,-0724,1347,7184,028.3,045.3,0.135,757.3,01.16,0.508
2014-03-17 03:26:00,4270E-2,5C000490,-0724,1348,7099,028.4,045.3,0.135,757.3,01.16,0.508
2014-03-17 03:27:00,4343E-2,5C000490,-0724,1348,7061,028.4,045.3,0.135,757.1,01.16,0.508
2014-03-17 03:28:00,4320E-2,5C000490,-0724,1350,6948,028.4,045.3,0.135,757.2,01.16,0.508
2014-03-17 03:29:00,4312E-2,5C000490,-0724,1351,7055,028.3,045.3,0.135,757.3,01.16,0.508
2014-03-17 03:30:00,4238E-2,5C000490,-0724,1352,6966,028.4,045.3,0.135,757.3,01.16,0.508
2014-03-17 03:31:00,4323E-2,5C000490,-0724,1351,7048,028.4,045.3,0.135,757.3,01.16,0.508
2014-03-17 03:32:00,4294E-2,5C000490,-0724,1351,6955,028.4,045.3,0.135,757.3,01.16,0.508
2014-03-17 03:33:00,4311E-2,5C000490,-0724,1352,6991,028.4,045.3,0.135,757.3,01.16,0.508
2014-03-17 03:34:00,4298E-2,5C000490,-0724,1353,7079,028.4,045.3,0.135,757.3,01.16,0.508
2014-03-17 03:35:00,4309E-2,5C000490,-0724,1354,6868,028.4,045.3,0.135,757.2,01.16,0.508
2014-03-17 03:36:00,4270E-2,5C000490,-0724,1355,6990,028.4,045.3,0.135,757.2,01.16,0.508
2014-03-17 03:37:00,4305E-2,5C000490,-0724,1356,6987,028.4,045.3,0.135,757.3,01.16,0.508
2014-03-17 03:38:00,4312E-2,5C000490,-0724,1357,6990,028.4,045.3,0.135,757.3,01.16,0.508
2014-03-17 03:39:00,4305E-2,5C000490,-0724,1358,6939,028.4,045.3,0.135,757.2,01.16,0.508
2014-03-17 03:40:00,4348E-2,5C000490,-0724,1359,6894,028.4,045.3,0.135,757.4,01.16,0.508
2014-03-17 03:41:00,4279E-2,5C000490,-0724,1360,6884,028.4,045.3,0.135,757.3,01.16,0.508
2014-03-17 03:42:00,4306E-2,5C000490,-0724,1361,6922,028.4,045.3,0.135,757.3,01.16,0.508
2014-03-17 03:43:00,4334E-2,5C000490,-0724,1362,6963,028.4,045.3,0.135,757.4,01.16,0.508
2014-03-17 03:44:00,4306E-2,5C000490,-0724,1362,6849,028.4,045.3,0.135,757.4,01.16,0.508
2014-03-17 03:45:00,4374E-2,5C000490,-0724,1363,6887,028.4,045.3,0.135,757.4,01.16,0.508
2014-03-17 03:46:00,4355E-2,5C000490,-0724,1364,6881,028.4,045.3,0.135,757.4,01.16,0.508
2014-03-17 03:47:00,4353E-2,5C000490,-0724,1365,6888,028.4,045.3,0.135,757.4,01.16,0.508
2014-03-17 03:48:00,4373E-2,5C000490,-0724,1365,6855,028.4,045.3,0.135,757.4,01.16,0.508
2014-03-17 03:49:00,4416E-2,5C000490,-0724,1366,6884,028.4,045.3,0.135,757.4,01.16,0.508
2014-03-17 03:50:00,4387E-2,5C000490,-0724,1366,6881,028.4,045.3,0.135,757.4,01.16,0.508
2014-03-17 03:51:00,4458E-2,5C000490,-0724,1366,6933,028.4,045.3,0.135,757.5,01.16,0.508
2014-03-17 03:52:00,4417E-2,5C000490,-0724,1366,6801,028.4,045.3,0.135,757.4,01.16,0.508
2014-03-17 03:53:00,4378E-2,5C000490,-0724,1366,6766,028.4,045.3,0.135,757.5,01.16,0.508
2014-03-17 03:54:00,4406E-2,5C000490,-0724,1367,6749,028.4,045.3,0.135,757.6,01.16,0.508
2014-03-17 03:55:00,4410E-2,5C000490,-0724,1368,6769,028.4,045.3,0.135,757.6,01.16,0.508
2014-03-17 03:56:00,4446E-2,5C000490,-0724,1368,6785,028.5,045.3,0.135,757.5,01.16,0.508
2014-03-17 03:57:00,4435E-2,5C000490,-0724,1367,6873,028.5,045.3,0.135,757.7,01.16,0.508
2014-03-17 03:58:00,4408E-2,5C000490,-0724,1367,6836,028.4,045.3,0.135,757.8,01.16,0.508
2014-03-17 03:59:00,4427E-2,5C000490,-0724,1368,6766,028.5,045.3,0.135,757.8,01.16,0.508
2014-03-17 04:00:00,4434E-2,5C000490,-0724,1368,6727,028.5,045.3,0.135,757.8,01.16,0.508
2014-03-17 04:01:00,4454E-2,5C000490,-0724,1369,6816,028.5,045.3,0.135,757.8,01.16,0.508
2014-03-17 04:02:00,4454E-2,5C000490,-0724,1369,6744,028.5,045.4,0.135,757.9,01.16,0.508
2014-03-17 04:03:00,4380E-2,5C000490,-0724,1369,6801,028.5,045.3,0.134,757.9,01.16,0.508
2014-03-17 04:04:00,4415E-2,5C000490,-0724,1370,6817,028.5,045.3,0.134,757.9,01.16,0.508
2014-03-17 04:05:00,4433E-2,5C000490,-0724,1371,6704,028.5,045.3,0.135,758.0,01.16,0.508
2014-03-17 04:06:00,4413E-2,5C000490,-0724,1371,6677,028.5,045.3,0.134,757.9,01.16,0.508
2014-03-17 04:07:00,4431E-2,5C000490,-0724,1372,6727,028.5,045.3,0.134,757.8,01.16,0.508
2014-03-17 04:08:00,4460E-2,5C000490,-0724,1372,6797,028.5,045.3,0.134,757.9,01.16,0.508
2014-03-17 04:09:00,4430E-2,5C000490,-0724,1372,6717,028.5,045.3,0.134,757.9,01.16,0.508
2014-03-17 04:10:00,4437E-2,5C000490,-0724,1373,6674,028.5,045.3,0.134,757.9,01.16,0.508
2014-03-17 04:11:00,4436E-2,5C000490,-0724,1373,6704,028.5,045.3,0.134,757.9,01.16,0.508
2014-03-17 04:12:00,4413E-2,5C000490,-0724,1373,6743,028.5,045.3,0.134,757.9,01.16,0.508
2014-03-17 04:13:00,4426E-2,5C000490,-0724,1373,6757,028.5,045.3,0.134,757.9,01.16,0.508
2014-03-17 04:14:00,4439E-2,5C000490,-0724,1373,6622,028.5,045.3,0.134,758.0,01.16,0.508
2014-03-17 04:15:00,4449E-2,5C000490,-0724,1373,6659,028.5,045.4,0.134,758.0,01.16,0.508
2014-03-17 04:16:00,4414E-2,5C000490,-0724,1373,6724,028.5,045.3,0.134,757.8,01.16,0.508
2014-03-17 04:17:00,4405E-2,5C000490,-0724,1372,6718,028.6,045.3,0.134,757.9,01.16,0.508
2014-03-17 04:18:00,4505E-2,5C000490,-0724,1372,6694,028.5,045.3,0.134,757.9,01.16,0.508
2014-03-17 04:19:00,4432E-2,5C000490,-0724,1373,6668,028.6,045.3,0.134,757.9,01.16,0.508
2014-03-17 04:20:00,4434E-2,5C000490,-0724,1373,6662,028.6,045.3,0.134,757.9,01.16,0.508
2014-03-17 04:21:00,4451E-2,5C000490,-0724,1373,6675,028.6,045.4,0.134,757.9,01.16,0.508
2014-03-17 04:22:00,4407E-2,5C000490,-0724,1373,6699,028.6,045.3,0.134,757.9,01.16,0.508
2014-03-17 04:23:00,4388E-2,5C000490,-0724,1373,6706,028.6,045.3,0.134,757.9,01.16,0.508